H1 CPF 2 NER 2020 11 11 9 316 01 glonass142 H2 2001801 9142 45358 2020 11 11 0 0 0 2020 11 14 23 45 0 900 1 1 0 0 0 1 H9 10 0 59164 0.00000 0 -7900504.174 -8006661.003 -22871864.924 10 0 59164 900.00000 0 -5409793.537 -9373734.625 -23077950.128 10 0 59164 1800.00000 0 -3028323.619 -10918691.268 -22834905.135 10 0 59164 2700.00000 0 -812922.175 -12600023.490 -22147554.808 10 0 59164 3600.00000 0 1188167.449 -14367267.314 -21029375.496 10 0 59164 4500.00000 0 2937063.751 -16163016.369 -19502224.410 10 0 59164 5400.00000 0 4407580.479 -17925244.570 -17595905.630 10 0 59164 6300.00000 0 5586061.819 -19589839.857 -15347581.613 10 0 59164 7200.00000 0 6471686.316 -21093242.582 -12801042.164 10 0 59164 8100.00000 0 7076228.946 -22375077.798 -10005845.514 10 0 59164 9000.00000 0 7423293.542 -23380671.098 -7016348.613 10 0 59164 9900.00000 0 7547049.896 -24063342.537 -3890646.010 10 0 59164 10800.00000 0 7490530.710 -24386382.732 -689438.296 10 0 59164 11700.00000 0 7303561.828 -24324628.615 2525147.569 10 0 59164 12600.00000 0 7040414.340 -23865573.228 5690762.779 10 0 59164 13500.00000 0 6757278.631 -23009963.695 8746042.658 10 0 59164 14400.00000 0 6509667.533 -21771862.841 11631790.788 10 0 59164 15300.00000 0 6349858.286 -20178172.390 14292118.612 10 0 59164 16200.00000 0 6324481.085 -18267637.913 16675519.023 10 0 59164 17100.00000 0 6472355.538 -16089377.042 18735853.975 10 0 59164 18000.00000 0 6822665.815 -13700992.260 20433237.960 10 0 59164 18900.00000 0 7393550.902 -11166346.073 21734801.328 10 0 59164 19800.00000 0 8191169.168 -8553090.169 22615319.740 10 0 59164 20700.00000 0 9209276.714 -5930050.075 23057698.444 10 0 59164 21600.00000 0 10429337.872 -3364572.349 23053302.650 10 0 59164 22500.00000 0 11821164.319 -919942.887 22602127.943 10 0 59164 23400.00000 0 13344057.468 1347017.938 21712807.273 10 0 59164 24300.00000 0 14948408.054 3388084.868 20402453.910 10 0 59164 25200.00000 0 16577687.812 5165394.710 18696342.451 10 0 59164 26100.00000 0 18170751.624 6652777.899 16627432.868 10 0 59164 27000.00000 0 19664355.255 7836599.703 14235745.471 10 0 59164 27900.00000 0 20995784.310 8716076.223 11567597.417 10 0 59164 28800.00000 0 22105484.707 9303051.928 8674714.393 10 0 59164 29700.00000 0 22939584.296 9621248.016 5613233.635 10 0 59164 30600.00000 0 23452199.113 9705013.169 2442616.966 10 0 59164 31500.00000 0 23607426.249 9597629.315 -775505.146 10 0 59164 32400.00000 0 23380938.095 9349244.230 -3978535.910 10 0 59164 33300.00000 0 22761109.224 9014518.865 -7104136.908 10 0 59164 34200.00000 0 21749626.865 8650089.733 -10091450.369 10 0 59164 35100.00000 0 20361557.729 8311954.898 -12882294.170 10 0 59164 36000.00000 0 18624867.132 8052895.498 -15422305.155 10 0 59164 36900.00000 0 16579409.689 7920043.353 -17662007.370 10 0 59164 37800.00000 0 14275433.391 7952698.965 -19557783.536 10 0 59164 38700.00000 0 11771659.500 8180493.478 -21072730.212 10 0 59164 39600.00000 0 9133018.759 8621973.328 -22177379.540 10 0 59164 40500.00000 0 6428138.737 9283668.224 -22850273.489 10 0 59164 41400.00000 0 3726687.430 10159682.359 -23078379.553 10 0 59164 42300.00000 0 1096684.192 11231826.437 -22857340.122 10 0 59164 43200.00000 0 -1398109.992 12470285.073 -22191551.164 10 0 59164 44100.00000 0 -3700614.488 13834791.487 -21094069.185 10 0 59164 45000.00000 0 -5762562.903 15276259.840 -19586348.830 10 0 59164 45900.00000 0 -7546261.035 16738806.406 -17697816.735 10 0 59164 46800.00000 0 -9025896.929 18162074.287 -15465290.397 10 0 59164 47700.00000 0 -10188350.020 19483763.693 -12932253.842 10 0 59164 48600.00000 0 -11033467.529 20642261.197 -10148004.611 10 0 59164 49500.00000 0 -11573798.689 21579257.293 -7166689.067 10 0 59164 50400.00000 0 -11833800.059 22242242.165 -4046245.237 10 0 59164 51300.00000 0 -11848547.474 22586774.814 -847274.161 10 0 59164 52200.00000 0 -11662010.673 22578430.382 2368138.035 10 0 59164 53100.00000 0 -11324964.869 22194344.125 5537624.091 10 0 59164 54000.00000 0 -10892628.528 21424287.629 8599742.155 10 0 59164 54900.00000 0 -10422127.692 20271232.378 11495161.599 10 0 59164 55800.00000 0 -9969894.256 18751377.537 14167805.397 10 0 59164 56700.00000 0 -9589107.731 16893640.814 16565927.490 10 0 59164 57600.00000 0 -9327287.991 14738633.523 18643105.053 10 0 59164 58500.00000 0 -9224139.909 12337162.406 20359127.459 10 0 59164 59400.00000 0 -9309739.983 9748319.898 21680765.762 10 0 59164 60300.00000 0 -9603140.736 7037241.242 22582408.944 10 0 59164 61200.00000 0 -10111451.216 4272620.317 23046555.410 10 0 59164 62100.00000 0 -10829432.358 1524085.813 23064150.978 10 0 59164 63000.00000 0 -11739624.737 -1140455.143 22634767.120 10 0 59164 63900.00000 0 -12813004.266 -3657397.232 21766615.917 10 0 59164 64800.00000 0 -14010139.704 -5969835.626 20476400.963 10 0 59164 65700.00000 0 -15282804.996 -8029684.785 18789006.176 10 0 59164 66600.00000 0 -16575980.448 -9799430.245 16737027.414 10 0 59164 67500.00000 0 -17830160.323 -11253441.146 14360154.547 10 0 59164 68400.00000 0 -18983871.224 -12378789.113 11704414.558 10 0 59164 69300.00000 0 -19976296.229 -13175539.271 8821289.084 10 0 59164 70200.00000 0 -20749894.729 -13656501.169 5766722.453 10 0 59164 71100.00000 0 -21252907.369 -13846449.922 2600038.783 10 0 59164 72000.00000 0 -21441639.773 -13780850.221 -617211.036 10 0 59164 72900.00000 0 -21282427.471 -13504137.133 -3822449.861 10 0 59164 73800.00000 0 -20753197.620 -13067626.583 -6953298.462 10 0 59164 74700.00000 0 -19844559.885 -12527144.447 -9948798.478 10 0 59164 75600.00000 0 -18560378.784 -11940475.413 -12750609.344 10 0 59164 76500.00000 0 -16917801.751 -11364740.668 -15304154.727 10 0 59164 77400.00000 0 -14946740.467 -10853816.563 -17559694.971 10 0 59164 78300.00000 0 -12688826.211 -10455904.701 -19473303.803 10 0 59164 79200.00000 0 -10195882.417 -10211357.331 -21007729.626 10 0 59164 80100.00000 0 -7527978.107 -10150850.890 -22133124.157 10 0 59164 81000.00000 0 -4751143.524 -10293985.528 -22827624.208 10 0 59164 81900.00000 0 -1934843.339 -10648370.156 -23077775.393 10 0 59164 82800.00000 0 850686.983 -11209231.740 -22878789.834 10 0 59164 83700.00000 0 3537130.719 -11959565.239 -22234633.331 10 0 59164 84600.00000 0 6060693.551 -12870817.590 -21157940.792 10 0 59164 85500.00000 0 8364513.255 -13904076.522 -19669762.115 10 0 59165 0.00000 0 10400775.933 -15011713.613 -17799144.019 10 0 59165 900.00000 0 12132451.544 -16139411.982 -15582556.125 10 0 59165 1800.00000 0 13534578.227 -17228492.627 -13063173.669 10 0 59165 2700.00000 0 14595042.430 -18218440.969 -10290030.255 10 0 59165 3600.00000 0 15314825.605 -19049527.073 -7317058.272 10 0 59165 4500.00000 0 15707708.003 -19665408.656 -4202035.792 10 0 59165 5400.00000 0 15799444.674 -20015607.318 -1005460.889 10 0 59165 6300.00000 0 15626450.095 -20057753.684 2210624.448 10 0 59165 7200.00000 0 15234048.501 -19759507.085 5383837.590 10 0 59165 8100.00000 0 14674364.975 -19100069.227 8452662.290 10 0 59165 9000.00000 0 14003947.203 -18071228.495 11357636.152 10 0 59165 9900.00000 0 13281218.587 -16677891.225 14042495.712 10 0 59165 10800.00000 0 12563870.093 -14938077.676 16455257.525 10 0 59165 11700.00000 0 11906300.467 -12882382.725 18549215.141 10 0 59165 12600.00000 0 11357211.944 -10552923.399 20283833.538 10 0 59165 13500.00000 0 10957461.839 -8001816.350 21625524.829 10 0 59165 14400.00000 0 10738259.544 -5289247.594 22548291.288 10 0 59165 15300.00000 0 10719783.989 -2481213.377 23034224.131 10 0 59165 16200.00000 0 10910279.197 352975.633 23073849.147 10 0 59165 17100.00000 0 11305665.880 3143325.091 22666312.805 10 0 59165 18000.00000 0 11889685.718 5821815.223 21819405.203 10 0 59165 18900.00000 0 12634573.095 8324978.037 20549418.943 10 0 59165 19800.00000 0 13502227.195 10596288.019 18880845.788 10 0 59165 20700.00000 0 14445836.607 12588268.036 16845915.819 10 0 59165 21600.00000 0 15411889.540 14264223.688 14483986.651 10 0 59165 22500.00000 0 16342486.390 15599534.230 11840793.100 10 0 59165 23400.00000 0 17177858.251 16582446.215 8967570.592 10 0 59165 24300.00000 0 17858985.764 17214336.534 5920068.229 10 0 59165 25200.00000 0 18330207.866 17509433.584 2757469.944 10 0 59165 26100.00000 0 18541709.771 17494007.998 -458755.503 10 0 59165 27000.00000 0 18451784.078 17205066.915 -3666053.218 10 0 59165 27900.00000 0 18028768.019 16688606.949 -6802005.699 10 0 59165 28800.00000 0 17252573.316 15997499.969 -9805556.426 10 0 59165 29700.00000 0 16115742.207 15189101.670 -12618208.638 10 0 59165 30600.00000 0 14623983.276 14322684.927 -15185174.837 10 0 59165 31500.00000 0 12796162.904 13456807.446 -17456453.439 10 0 59165 32400.00000 0 10663751.318 12646726.116 -19387810.717 10 0 59165 33300.00000 0 8269745.459 11941968.301 -20941648.236 10 0 59165 34200.00000 0 5667113.143 11384163.511 -22087738.424 10 0 59165 35100.00000 0 2916823.240 11005227.582 -22803813.876 10 0 59165 36000.00000 0 85543.923 10825976.222 -23075999.054 10 0 59165 36900.00000 0 -2756894.925 10855226.412 -22899076.274 10 0 59165 37800.00000 0 -5540169.468 11089423.185 -22276581.301 10 0 59165 38700.00000 0 -8196148.857 11512807.007 -21220727.189 10 0 59165 39600.00000 0 -10661489.704 12098113.984 -19752158.391 10 0 59165 40500.00000 0 -12880030.614 12807778.578 -17899540.461 10 0 59165 41400.00000 0 -14804887.873 13595587.350 -15698993.762 10 0 59165 42300.00000 0 -16400165.963 14408713.174 -13193382.702 10 0 59165 43200.00000 0 -17642212.950 15190043.461 -10431474.721 10 0 59165 44100.00000 0 -18520369.965 15880703.581 -7466985.787 10 0 59165 45000.00000 0 -19037185.191 16422668.562 -4357531.437 10 0 59165 45900.00000 0 -19208085.340 16761352.584 -1163504.114 10 0 59165 46800.00000 0 -19060520.330 16848066.881 2053101.019 10 0 59165 47700.00000 0 -18632618.815 16642242.373 5229888.657 10 0 59165 48600.00000 0 -17971412.635 16113323.473 8305270.837 10 0 59165 49500.00000 0 -17130706.082 15242253.430 11219656.008 10 0 59165 50400.00000 0 -16168680.360 14022488.917 13916596.803 10 0 59165 51300.00000 0 -15145334.374 12460501.222 16343874.852 10 0 59165 52200.00000 0 -14119869.239 10575742.807 18454502.375 10 0 59165 53100.00000 0 -13148126.021 8400080.184 20207622.046 10 0 59165 54000.00000 0 -12280183.646 5976716.122 21569288.886 10 0 59165 54900.00000 0 -11558216.708 3358644.849 22513120.040 10 0 59165 55800.00000 0 -11014702.206 606703.259 23020800.804 10 0 59165 56700.00000 0 -10671049.534 -2212702.660 23082437.852 10 0 59165 57600.00000 0 -10536710.646 -5030103.602 22696753.193 10 0 59165 58500.00000 0 -10608807.530 -7775602.817 21871115.078 10 0 59165 59400.00000 0 -10872292.800 -10381534.530 20621404.827 10 0 59165 60300.00000 0 -11300637.285 -12785036.236 18971721.297 10 0 59165 61200.00000 0 -11857016.642 -14930429.188 16953927.592 10 0 59165 62100.00000 0 -12495948.170 -16771309.069 14607047.419 10 0 59165 63000.00000 0 -13165310.068 -18272260.226 11976521.355 10 0 59165 63900.00000 0 -13808658.974 -19410122.011 9113336.171 10 0 59165 64800.00000 0 -14367748.678 -20174754.118 6073042.991 10 0 59165 65700.00000 0 -14785143.828 -20569268.479 2914682.573 10 0 59165 66600.00000 0 -15006817.893 -20609717.487 -300361.635 10 0 59165 67500.00000 0 -14984624.669 -20324251.343 -3509560.294 10 0 59165 68400.00000 0 -14678537.549 -19751779.810 -6650461.016 10 0 59165 69300.00000 0 -14058560.201 -18940194.885 -9661912.519 10 0 59165 70200.00000 0 -13106226.066 -17944229.783 -12485265.204 10 0 59165 71100.00000 0 -11815621.399 -16823045.273 -15065523.655 10 0 59165 72000.00000 0 -10193886.925 -15637646.140 -17352427.394 10 0 59165 72900.00000 0 -8261175.326 -14448237.811 -19301437.963 10 0 59165 73800.00000 0 -6050064.975 -13311635.623 -20874612.413 10 0 59165 74700.00000 0 -3604453.573 -12278836.822 -22041345.696 10 0 59165 75600.00000 0 -977977.288 -11392858.203 -22778967.447 10 0 59165 76500.00000 0 1767978.960 -10686930.711 -23073181.645 10 0 59165 77400.00000 0 4566597.122 -10183126.963 -22918340.892 10 0 59165 78300.00000 0 7348171.155 -9891479.005 -22317550.465 10 0 59165 79200.00000 0 10042775.726 -9809622.712 -21282600.604 10 0 59165 80100.00000 0 12582947.427 -9922982.824 -19833728.912 10 0 59165 81000.00000 0 14906267.205 -10205489.708 -17999217.995 10 0 59165 81900.00000 0 16957736.980 -10620796.464 -15814836.625 10 0 59165 82800.00000 0 18691852.080 -11123943.898 -13323135.793 10 0 59165 83700.00000 0 20074284.139 -11663402.053 -10572613.758 10 0 59165 84600.00000 0 21083105.478 -12183401.205 -7616766.717 10 0 59165 85500.00000 0 21709505.222 -12626453.157 -4513044.038 10 0 59166 0.00000 0 21957968.934 -12935955.801 -1321728.819 10 0 59166 900.00000 0 21845915.791 -13058770.321 1895234.575 10 0 59166 1800.00000 0 21402810.628 -12947662.934 5075441.828 10 0 59166 2700.00000 0 20668788.927 -12563506.464 8157236.740 10 0 59166 3600.00000 0 19692854.634 -11877150.762 11080901.732 10 0 59166 4500.00000 0 18530726.763 -10870882.011 13789808.225 10 0 59166 5400.00000 0 17242426.047 -9539410.116 16231505.092 10 0 59166 6300.00000 0 15889702.847 -7890342.323 18358724.873 10 0 59166 7200.00000 0 14533413.993 -5944122.928 20130289.112 10 0 59166 8100.00000 0 13230957.796 -3733440.828 21511896.424 10 0 59166 9000.00000 0 12033873.722 -1302128.549 22476779.083 10 0 59166 9900.00000 0 10985706.200 1296402.622 23006216.330 10 0 59166 10800.00000 0 10120220.828 4001128.105 23089895.234 10 0 59166 11700.00000 0 9460046.750 6745696.261 22726112.534 10 0 59166 12600.00000 0 9015801.376 9460942.332 21921813.525 10 0 59166 13500.00000 0 8785733.776 12077527.718 20692466.866 10 0 59166 14400.00000 0 8755901.759 14528596.732 19061776.894 10 0 59166 15300.00000 0 8900875.610 16752341.807 17061237.887 10 0 59166 16200.00000 0 9184939.597 18694371.530 14729537.600 10 0 59166 17100.00000 0 9563741.483 20309783.491 12111820.125 10 0 59166 18000.00000 0 9986321.364 21564855.526 9258821.149 10 0 59166 18900.00000 0 10397434.816 22438284.508 6225891.215 10 0 59166 19800.00000 0 10740072.502 22921920.290 3071925.163 10 0 59166 20700.00000 0 10958069.576 23020963.351 -141781.693 10 0 59166 21600.00000 0 10998693.836 22753617.236 -3352728.396 10 0 59166 22500.00000 0 10815101.985 22150209.912 -6498430.429 10 0 59166 23400.00000 0 10368558.572 21251820.796 -9517644.341 10 0 59166 24300.00000 0 9630321.951 20108471.386 -12351570.064 10 0 59166 25200.00000 0 8583115.596 18776956.144 -14945006.352 10 0 59166 26100.00000 0 7222120.760 17318405.727 -17247435.635 10 0 59166 27000.00000 0 5555446.804 15795686.103 -19214016.247 10 0 59166 27900.00000 0 3604057.808 14270743.936 -20806461.994 10 0 59166 28800.00000 0 1401157.325 12802010.883 -21993791.395 10 0 59166 29700.00000 0 -1008943.886 11441976.552 -22752931.950 10 0 59166 30600.00000 0 -3572430.447 10235032.468 -23069167.749 10 0 59166 31500.00000 0 -6227988.571 9215677.638 -22936421.995 10 0 59166 32400.00000 0 -8909132.423 8407160.617 -22357369.469 10 0 59166 33300.00000 0 -11546753.724 7820614.296 -21343377.205 10 0 59166 34200.00000 0 -14071788.357 7454718.680 -19914275.140 10 0 59166 35100.00000 0 -16417889.052 7295904.430 -18097961.683 10 0 59166 36000.00000 0 -18523993.090 7319087.120 -15929852.370 10 0 59166 36900.00000 0 -20336678.354 7488899.771 -13452182.786 10 0 59166 37800.00000 0 -21812210.188 7761370.235 -10713179.759 10 0 59166 38700.00000 0 -22918194.520 8085971.339 -7766117.274 10 0 59166 39600.00000 0 -23634769.218 8407956.128 -4668275.979 10 0 59166 40500.00000 0 -23955285.231 8670878.656 -1479826.860 10 0 59166 41400.00000 0 -23886450.408 8819193.162 1737338.906 10 0 59166 42300.00000 0 -23447931.424 8800821.414 4920810.794 10 0 59166 43200.00000 0 -22671431.977 8569579.569 8008867.060 10 0 59166 44100.00000 0 -21599287.085 8087362.047 10941666.747 10 0 59166 45000.00000 0 -20282633.560 7325990.394 13662402.633 10 0 59166 45900.00000 0 -18779233.895 6268649.282 16118393.309 10 0 59166 46800.00000 0 -17151044.917 4910849.160 18262093.915 10 0 59166 47700.00000 0 -15461632.946 3260874.874 20052006.909 10 0 59166 48600.00000 0 -13773543.011 1339700.893 21453476.246 10 0 59166 49500.00000 0 -12145731.191 -819624.278 22439350.743 10 0 59166 50400.00000 0 -10631166.245 -3173100.025 22990504.634 10 0 59166 51300.00000 0 -9274699.506 -5667356.756 23096206.073 10 0 59166 52200.00000 0 -8111290.775 -8241636.244 22754326.845 10 0 59166 53100.00000 0 -7164663.389 -10830088.735 21971389.255 10 0 59166 54000.00000 0 -6446443.865 -13364293.394 20762448.914 10 0 59166 54900.00000 0 -5955821.742 -15775899.200 19150814.901 10 0 59166 55800.00000 0 -5679743.808 -17999277.979 17167611.594 10 0 59166 56700.00000 0 -5593634.793 -19974080.377 14851189.361 10 0 59166 57600.00000 0 -5662614.702 -21647589.001 12246394.063 10 0 59166 58500.00000 0 -5843162.096 -22976770.707 9403708.245 10 0 59166 59400.00000 0 -6085153.673 -23929942.053 6378279.555 10 0 59166 60300.00000 0 -6334194.294 -24487977.639 3228854.386 10 0 59166 61200.00000 0 -6534138.915 -24645009.788 16637.195 10 0 59166 62100.00000 0 -6629699.214 -24408589.327 -3195902.307 10 0 59166 63000.00000 0 -6569023.658 -23799299.886 -6346250.455 10 0 59166 63900.00000 0 -6306140.437 -22849841.304 -9373074.699 10 0 59166 64800.00000 0 -5803158.214 -21603620.455 -12217427.598 10 0 59166 65700.00000 0 -5032129.721 -20112908.827 -14823905.142 10 0 59166 66600.00000 0 -3976497.547 -18436644.804 -17141735.622 10 0 59166 67500.00000 0 -2632059.222 -16637973.739 -19125776.914 10 0 59166 68400.00000 0 -1007409.225 -14781630.005 -20737402.011 10 0 59166 69300.00000 0 876162.068 -12931271.844 -21945255.057 10 0 59166 70200.00000 0 2985309.401 -11146881.541 -22725863.022 10 0 59166 71100.00000 0 5275787.604 -9482340.356 -23064091.231 10 0 59166 72000.00000 0 7694072.636 -7983280.022 -22953434.144 10 0 59166 72900.00000 0 10179381.282 -6685300.456 -22396136.231 10 0 59166 73800.00000 0 12666005.343 -5612627.627 -21403141.082 10 0 59166 74700.00000 0 15085862.878 -4777266.738 -19993870.302 10 0 59166 75600.00000 0 17371160.173 -4178684.735 -18195837.027 10 0 59166 76500.00000 0 19457053.491 -3804033.812 -16044102.037 10 0 59166 77400.00000 0 21284199.688 -3628904.714 -13580583.549 10 0 59166 78300.00000 0 22801089.642 -3618576.316 -10853234.508 10 0 59166 79200.00000 0 23966067.578 -3729707.133 -7915103.789 10 0 59166 80100.00000 0 24748952.611 -3912395.906 -4823300.010 10 0 59166 81000.00000 0 25132195.654 -4112522.983 -1637878.488 10 0 59166 81900.00000 0 25111524.375 -4274272.634 1579326.734 10 0 59166 82800.00000 0 24696050.364 -4342729.006 4765902.715 10 0 59166 83700.00000 0 23907835.251 -4266435.653 7860065.898 10 0 59166 84600.00000 0 22780935.059 -3999810.318 10801855.454 10 0 59166 85500.00000 0 21359963.784 -3505313.073 13534288.678 10 0 59167 0.00000 0 19698236.974 -2755276.537 16004456.536 10 0 59167 900.00000 0 17855573.197 -1733320.630 18164539.135 10 0 59167 1800.00000 0 15895845.412 -435293.671 19972721.589 10 0 59167 2700.00000 0 13884383.976 1130302.280 21393994.533 10 0 59167 3600.00000 0 11885338.636 2942418.129 22400824.223 10 0 59167 4500.00000 0 9959108.747 4968094.502 22973680.370 10 0 59167 5400.00000 0 8159947.339 7163602.784 23101412.280 10 0 59167 6300.00000 0 6533837.588 9476044.813 22781466.465 10 0 59167 7200.00000 0 5116729.034 11845346.405 22019941.525 10 0 59167 8100.00000 0 3933205.989 14206563.768 20831478.944 10 0 59167 9000.00000 0 2995642.972 16492408.795 19238991.104 10 0 59167 9900.00000 0 2303882.031 18635889.665 17273230.723 10 0 59167 10800.00000 0 1845445.329 20572958.198 14972208.738 10 0 59167 11700.00000 0 1596274.154 22245054.362 12380470.461 10 0 59167 12600.00000 0 1521963.635 23601442.027 9548242.760 10 0 59167 13500.00000 0 1579441.441 24601238.146 6530467.638 10 0 59167 14400.00000 0 1719019.882 25215049.783 3385740.127 10 0 59167 15300.00000 0 1886734.689 25426149.381 175170.808 10 0 59167 16200.00000 0 2026871.209 25231137.833 -3038804.925 10 0 59167 17100.00000 0 2084570.308 24640066.356 -6193647.271 10 0 59167 18000.00000 0 2008402.531 23676011.048 -9227937.456 10 0 59167 18900.00000 0 1752800.028 22374117.327 -12082583.324 10 0 59167 19800.00000 0 1280241.582 20780154.043 -14701980.480 10 0 59167 20700.00000 0 563096.536 18948638.091 -17035105.146 10 0 59167 21600.00000 0 -414952.158 16940608.628 -19036516.491 10 0 59167 22500.00000 0 -1657967.493 14821144.899 -20667248.162 10 0 59167 23400.00000 0 -3157341.664 12656732.519 -21895571.107 10 0 59167 24300.00000 0 -4891921.788 10512589.191 -22697612.690 10 0 59167 25200.00000 0 -6828673.727 8450062.331 -23057820.122 10 0 59167 26100.00000 0 -8923856.781 6524207.697 -22969259.472 10 0 59167 27000.00000 0 -11124660.439 4781650.102 -22433744.920 10 0 59167 27900.00000 0 -13371234.932 3258815.031 -21461796.240 10 0 59167 28800.00000 0 -15599030.651 1980604.133 -20072425.927 10 0 59167 29700.00000 0 -17741348.712 959568.603 -18292760.648 10 0 59167 30600.00000 0 -19731996.078 195613.287 -16157504.842 10 0 59167 31500.00000 0 -21507934.267 -323757.928 -13708257.413 10 0 59167 32400.00000 0 -23011811.096 -622667.829 -10992695.215 10 0 59167 33300.00000 0 -24194269.880 -735597.255 -8063639.580 10 0 59167 34200.00000 0 -25015939.869 -705677.393 -4978024.511 10 0 59167 35100.00000 0 -25449025.227 -582616.645 -1795786.945 10 0 59167 36000.00000 0 -25478426.786 -420350.910 1421299.002 10 0 59167 36900.00000 0 -25102350.446 -274517.490 4610820.837 10 0 59167 37800.00000 0 -24332377.673 -199860.026 7710936.083 10 0 59167 38700.00000 0 -23192996.048 -247674.428 10661566.918 10 0 59167 39600.00000 0 -21720610.326 -463403.732 13405557.969 10 0 59167 40500.00000 0 -19962075.940 -884483.287 15889775.358 10 0 59167 41400.00000 0 -17972816.544 -1538526.961 18066126.420 10 0 59167 42300.00000 0 -15814604.172 -2441930.599 19892481.154 10 0 59167 43200.00000 0 -13553094.170 -3598951.542 21333478.659 10 0 59167 44100.00000 0 -11255216.825 -5001303.228 22361203.987 10 0 59167 45000.00000 0 -8986533.264 -6628282.560 22955723.244 10 0 59167 45900.00000 0 -6808664.296 -8447425.848 23105467.391 10 0 59167 46800.00000 0 -4776897.736 -10415667.426 22807457.761 10 0 59167 47700.00000 0 -2938072.410 -12480954.312 22067368.991 10 0 59167 48600.00000 0 -1328825.611 -14584251.485 20899427.850 10 0 59167 49500.00000 0 25724.036 -16661856.169 19326149.143 10 0 59167 50400.00000 0 1112804.033 -18647926.285 17377912.755 10 0 59167 51300.00000 0 1932291.693 -20477119.124 15092388.743 10 0 59167 52200.00000 0 2496481.509 -22087231.082 12513820.148 10 0 59167 53100.00000 0 2829325.846 -23421728.568 9692176.171 10 0 59167 54000.00000 0 2965180.787 -24432064.191 6682190.946 10 0 59167 54900.00000 0 2947109.787 -25079680.579 3542305.712 10 0 59167 55800.00000 0 2824816.740 -25337616.787 333534.580 10 0 59167 56700.00000 0 2652296.057 -25191648.580 -2881724.095 10 0 59167 57600.00000 0 2485299.791 -24640913.283 -6040907.189 10 0 59167 58500.00000 0 2378729.955 -23697991.563 -9082512.574 10 0 59167 59400.00000 0 2384067.750 -22388441.626 -11947306.255 10 0 59167 60300.00000 0 2546950.077 -20749804.534 -14579486.290 10 0 59167 61200.00000 0 2904997.566 -18830122.062 -16927779.556 10 0 59167 62100.00000 0 3485987.663 -16686029.253 -18946449.047 10 0 59167 63000.00000 0 4306451.601 -14380501.896 -20596191.333 10 0 59167 63900.00000 0 5370755.835 -11980353.853 -21844906.085 10 0 59167 64800.00000 0 6670707.882 -9553589.488 -22668322.589 10 0 59167 65700.00000 0 8185704.042 -7166722.359 -23050471.065 10 0 59167 66600.00000 0 9883413.432 -4882172.525 -22983989.901 10 0 59167 67500.00000 0 11720970.001 -2755851.082 -22470263.310 10 0 59167 68400.00000 0 13646622.737 -835032.293 -21519387.218 10 0 59167 69300.00000 0 15601774.903 843398.626 -20149964.633 10 0 59167 70200.00000 0 17523326.814 2254250.172 -18388735.026 10 0 59167 71100.00000 0 19346223.991 3384828.787 -16270045.405 10 0 59167 72000.00000 0 21006103.809 4235210.835 -13835173.880 10 0 59167 72900.00000 0 22441929.800 4817973.071 -11131519.304 10 0 59167 73800.00000 0 23598503.334 5157395.067 -8211673.117 10 0 59167 74700.00000 0 24428747.572 5288169.183 -5132391.944 10 0 59167 75600.00000 0 24895668.325 5253674.342 -1953491.237 10 0 59167 76500.00000 0 24973910.081 5103888.042 1263318.189 10 0 59167 77400.00000 0 24650842.541 4893025.961 4455627.784 10 0 59167 78300.00000 0 23927132.796 4677009.798 7561539.675 10 0 59167 79200.00000 0 22816779.808 4510870.822 10520862.451 10 0 59167 80100.00000 0 21346610.361 4446198.970 13276271.268 10 0 59167 81000.00000 0 19555258.002 4528745.114 15774410.278 10 0 59167 81900.00000 0 17491667.796 4796277.378 17966916.728 10 0 59167 82800.00000 0 15213189.246 5276781.550 19811347.698 10 0 59167 83700.00000 0 12783336.412 5987081.077 21271992.605 10 0 59167 84600.00000 0 10269307.686 6931934.714 22320556.775 10 0 59167 85500.00000 0 7739367.340 8103649.944 22936703.793 99